Regional Weather Roundup
Issued by NWS

Home | Current Version | Previous Version | Graphics & Text | Print | Product List | Glossary On
Versions: 1 2 3 4 5 6 7 8 9 10 11 12 13 14 15 16 17 18 19 20 21 22 23 24 25 26 27 28 29 30 31 32 33 34 35 36 37 38 39 40 41 42 43 44 45 46 47 48 49 50
642
ASUS45 KCYS 060010
RWRWY

WYOMING REGIONAL WEATHER ROUNDUP
NATIONAL WEATHER SERVICE CHEYENNE WY
500 PM MST MON DEC 05 2016

NOTE:  "FAIR" INDICATES FEW OR NO CLOUDS BELOW 12,000 FEET
WITH NO SIGNIFICANT WEATHER AND/OR OBSTRUCTIONS TO VISIBILITY.

WYZ001-060100-
YELLOWSTONE NATIONAL PARK

CITY           SKY/WX    TMP DP  RH WIND       PRES   REMARKS
LK YELLOWSTONE   N/A      1  -2  87 CALM      29.83S
6HR MIN TEMP:   1; 6HR MAX TEMP:  10;

W YELLOWSTONE  NOT AVBL

$$
WYZ002>013-054>058-071-098>099-060100-
NORTHERN WYOMING

CITY           SKY/WX    TMP DP  RH WIND       PRES   REMARKS
JACKSON        PTCLDY    10  -2  56 SW8       29.91S WCI  -1
CODY           FAIR      15   7  70 N6        29.92S WCI   6
GREYBULL       CLOUDY    23   4  44 NW16      29.95R WCI  10
6HR MIN TEMP:  22; 6HR MAX TEMP:  27;

WORLAND        CLOUDY    20  11  68 N10       29.95R WCI   9
6HR MIN TEMP:  20; 6HR MAX TEMP:  25;

SHERIDAN       FAIR      19   9  65 NW20      29.96R WCI   3
6HR MIN TEMP:  19; 6HR MAX TEMP:  21; 6HR PCP: TRACE;

BUFFALO        MIX PCPN  17   8  67 NW25G36   29.88R WCI  -1
6HR MIN TEMP:  16; 6HR MAX TEMP:  20; 6HR PCP: TRACE;

GILLETTE       MOCLDY    15   9  76 NW16      29.88R WCI  -1
6HR MIN TEMP:  14; 6HR MAX TEMP:  20; 6HR PCP: TRACE;

HULETT         LGT SNOW  18  12  79 W5        29.85R WCI  11
NEWCASTLE      FLURRIES  18  12  79 NW12      29.86R WCI   5

$$
WYZ014>020-022>026-101>103-060100-
CENTRAL WYOMING

CITY           SKY/WX    TMP DP  RH WIND       PRES   REMARKS
BIG PINEY      FAIR       7  -6  55 NW13      29.89S WCI  -9
6HR MIN TEMP:   7; 6HR MAX TEMP:  18;

PINEDALE       FAIR       5  -4  66 W9        29.90R WCI  -9
DUBOIS         FAIR       9  -8  47 NW12G20   29.83R WCI  -6
LANDER         FAIR      18  -5  36 NW7       29.87R WCI   9
6HR MIN TEMP:  18; 6HR MAX TEMP:  26;

RIVERTON       FAIR      18  -6  34 NW15G25   29.88R WCI   4
6HR MIN TEMP:  18; 6HR MAX TEMP:  27;

CASPER         CLOUDY    16  11  80 SW8       29.87R WCI   5
6HR MIN TEMP:  15; 6HR MAX TEMP:  20; 6HR PCP:  0.07;

DOUGLAS        CLOUDY    17  10  74 NW8       29.88R WCI   7
6HR MIN TEMP:  17; 6HR MAX TEMP:  21; 6HR PCP: TRACE;


$$
WYZ021-027>030-104>119-060100-
SOUTHERN WYOMING

CITY           SKY/WX    TMP DP  RH WIND       PRES   REMARKS
EVANSTON       FAIR      12 -16  27 W10       29.91S WCI  -1
6HR MIN TEMP:  12; 6HR MAX TEMP:  20;

FORT BRIDGER   FAIR      13 -11  34 NW6       29.94S WCI   3
ROCK SPRINGS   FAIR      13  -6  42 W14       29.90R WCI  -2
6HR MIN TEMP:  13; 6HR MAX TEMP:  19;

DIXON          CLOUDY    18  -3  39 W12G18    29.93R WCI   6
RAWLINS        FAIR      15 -11  30 W20       29.84R WCI  -2
6HR MIN TEMP:  15; 6HR MAX TEMP:  21;

SARATOGA       FAIR      12  -2  52 SW10      29.84S WCI  -1
LARAMIE        MOCLDY    14  -9  35 W18G26    29.77R WCI  -3
6HR MIN TEMP:  14; 6HR MAX TEMP:  25;

CHEYENNE       CLOUDY    21  -7  28 NW22G30   29.81R WCI   5
6HR MIN TEMP:  21; 6HR MAX TEMP:  34;

TORRINGTON     CLOUDY    21  11  65 NW13G21   29.89R WCI   9
6HR MIN TEMP:  21; 6HR MAX TEMP:  37; 6HR PCP: TRACE;

PINE BLUFFS    FAIR      19  14  79 NW26G38   29.80R WCI   1

$$




USA.gov is the U.S. government's official web portal to all federal, state and local government web resources and services.